This demonstration page uses our WeatherBlox Daily Observations layout. Learn more.

Left ArrowRight Arrow

34.02893, -84.19858

Hourly Observations for May 16, 2022

Temp ( °F °C ) Dew Point ( °F °C ) Humidity (%) Winds ( mph kmh ) Pressure ( in mb ) Visibility ( mi km ) Precip ( " mm )
12:53 am 00:53 Clear 64 17.8 63 17.2 96 96 Calm 29.86 1011 8 13 0.00 0.00
1:53 am 01:53 Clear 64 17.8 63 17.2 96 96 SSE 3 6 29.83 1010 8 13 0.00 0.00
2:53 am 02:53 Clear 63 17.2 62 16.7 97 97 Calm 29.80 1009 7 11 0.00 0.00
3:53 am 03:53 Clear 62 16.7 61 16.1 96 96 Calm 29.83 1010 7 11 0.00 0.00
4:53 am 04:53 Clear 65 18.3 63 17.2 93 93 Calm 29.83 1010 10 16 0.00 0.00
5:53 am 05:53 Clear 62 16.7 61 16.1 96 96 Calm 29.82 1010 7 11 0.00 0.00
6:53 am 06:53 Sunny with Mist and Fog 62 16.7 61 16.1 96 96 Calm 29.85 1011 6 10 0.00 0.00
7:53 am 07:53 Mostly Sunny 66 18.9 64 17.8 93 93 SSW 3 6 29.86 1011 7 11 0.00 0.00
8:53 am 08:53 Sunny 70 21.1 64 17.8 82 82 VRB 3 6 29.86 1011 10 16 0.00 0.00
9:53 am 09:53 Sunny 74 23.3 64 17.8 71 71 WNW 8 13 29.87 1012 10 16 0.00 0.00
10:53 am 10:53 Sunny 78 25.6 63 17.2 60 60 NNW 8 13 29.88 1012 10 16 0.00 0.00
11:53 am 11:53 Mostly Cloudy 79 26.1 61 16.1 54 54 W 7 11 29.88 1012 10 16 0.00 0.00
12:53 pm 12:53 Mostly Cloudy 81 27.2 61 16.1 51 51 NW 7 11 29.87 1012 10 16 0.00 0.00
1:53 pm 13:53 Sunny 83 28.3 62 16.7 49 49 W 10 17 29.85 1011 10 16 0.00 0.00
2:53 pm 14:53 Mostly Sunny 85 29.4 62 16.7 46 46 WNW 10 17 29.84 1010 10 16 0.00 0.00
3:53 pm 15:53 Sunny 83 28.3 60 15.6 46 46 WNW 12 19 29.83 1010 10 16 0.00 0.00
4:53 pm 16:53 Sunny 84 28.9 61 16.1 46 46 W 10 17 29.81 1010 10 16 0.00 0.00
5:53 pm 17:53 Mostly Cloudy 82 27.8 61 16.1 49 49 W 8 13 29.82 1010 10 16 0.00 0.00
6:53 pm 18:53 Mostly Sunny 83 28.3 57 13.9 41 41 NW 9 15 29.81 1010 10 16 0.00 0.00
7:53 pm 19:53 Sunny 80 26.7 54 12.2 41 41 NW 12 19 29.83 1010 10 16 0.00 0.00
8:53 pm 20:53 Clear 76 24.4 53 11.7 45 45 NW 8 13 29.85 1011 10 16 0.00 0.00
9:53 pm 21:53 Clear 73 22.8 54 12.2 51 51 NNW 7 11 29.88 1012 10 16 0.00 0.00
10:53 pm 22:53 Clear 72 22.2 54 12.2 53 53 NNW 9 15 29.89 1012 10 16 0.00 0.00
11:53 pm 23:53 Clear 69 20.6 53 11.7 57 57 NNW 8 13 29.91 1013 10 16 0.00 0.00

Powered by AerisWeather